Simultaneous Nadir Overpasses (SNOs) Predictions

Prediction of SNOs between AQUA and GOES-15 Satellite Orbit:

Table of predicted SNOs for the next 14.0 days since TLE Epoch: 3/28/2014
Index Date Time (AQUA) AQUA Lat,Lon GOES-15 Lat,Lon Distance(km) Time Diff (sec)
1 03/29/2014 10:20:37 -0.83,-131.21 -0.01,-135.17 449.55 80
2 03/29/2014 22:42:02 -0.23,-136.41 0.01,-135.18 139.77 80
3 03/31/2014 22:29:50 0.38,-133.45 0.01,-135.23 202.18 80
4 04/01/2014 10:51:04 0.74,-138.60 -0.01,-135.25 381.86 80
5 04/03/2014 10:38:53 0.06,-135.65 -0.01,-135.30 40.16 80
6 04/05/2014 10:26:39 -0.54,-132.68 -0.01,-135.34 301.42 80
7 04/05/2014 22:48:02 -0.53,-137.88 0.00,-135.34 288.38 80
8 04/07/2014 22:35:47 0.08,-134.90 0.00,-135.38 53.26 80
9 04/09/2014 22:23:33 0.73,-131.94 0.00,-135.41 394.70 80
10 04/10/2014 10:44:47 0.33,-137.10 0.00,-135.43 189.22 80




NCC Satellite Simultaneous Nadir Overpasses (SNOs) Prediction Service
